Total_Precipitation_Accumulation
1.34 1.41 1.30 1.22 1.14 1.12 1.09 0.96 0.89 0.85 0.75 0.68 0.56 0.51 0.51 0.48 0.50 0.60 0.66 0.74 0.76 0.98 1.25 1.29 1.16 1.00 0.96 0.93 0.92 0.85 0.74 0.70 0.63 0.55 0.49 0.46 0.44 0.43 0.40 0.39 0.39 0.35 0.33
1.54 1.59 1.56 1.50 1.45 1.47 1.56 1.38 1.18 1.18 1.07 1.03 0.96 0.91 0.82 0.78 0.77 0.82 0.96 0.91 0.81 0.90 1.15 1.36 1.40 1.34 1.30 1.22 1.15 1.03 0.92 0.86 0.82 0.79 0.73 0.65 0.57 0.52 0.49 0.48 0.44 0.41 0.38
1.71 1.77 1.90 1.85 1.78 1.76 1.81 1.76 1.60 1.57 1.45 1.37 1.26 1.10 1.04 1.13 1.13 1.04 1.13 1.21 1.04 1.03 1.04 1.18 1.31 1.39 1.43 1.41 1.36 1.28 1.17 1.08 1.01 0.96 0.90 0.81 0.76 0.72 0.68 0.63 0.56 0.53 0.51
1.85 2.00 2.09 2.09 2.05 2.00 2.10 2.18 2.10 1.91 1.80 1.66 1.52 1.29 1.21 1.28 1.32 1.35 1.35 1.43 1.52 1.41 1.30 1.22 1.26 1.34 1.46 1.50 1.51 1.49 1.40 1.28 1.17 1.10 1.05 0.98 0.94 0.89 0.79 0.70 0.67 0.65 0.63
2.22 2.27 2.38 2.46 2.46 2.49 2.51 2.44 2.48 2.22 2.16 2.05 1.79 1.63 1.43 1.40 1.43 1.40 1.46 1.43 1.49 1.48 1.47 1.41 1.32 1.32 1.45 1.63 1.62 1.65 1.62 1.52 1.40 1.25 1.15 1.08 1.07 1.02 0.91 0.83 0.78 0.73 0.69
2.89 2.96 2.93 2.96 2.92 2.97 2.84 2.78 2.74 2.52 2.34 2.31 1.98 1.81 1.66 1.53 1.51 1.48 1.47 1.46 1.36 1.29 1.33 1.38 1.43 1.33 1.41 1.51 1.55 1.66 1.71 1.76 1.68 1.52 1.41 1.31 1.20 1.07 0.94 0.88 0.83 0.79 0.77
3.87 3.89 3.76 3.65 3.49 3.34 3.17 3.05 2.87 2.69 2.47 2.37 2.23 1.90 1.54 1.33 1.35 1.30 1.32 1.43 1.43 1.35 1.31 1.33 1.34 1.28 1.24 1.28 1.32 1.44 1.60 1.79 1.84 1.75 1.64 1.48 1.26 1.09 1.00 0.93 0.89 0.86 0.85
4.75 4.84 4.73 4.51 4.29 3.92 3.48 3.14 2.94 2.79 2.55 2.48 2.37 2.28 1.81 1.46 1.22 1.02 1.08 1.13 1.18 1.26 1.22 1.17 1.16 1.20 1.20 1.19 1.15 1.22 1.33 1.50 1.70 1.82 1.80 1.63 1.44 1.28 1.17 1.10 1.05 1.01 0.97
4.89 5.06 5.04 4.79 4.41 3.83 3.32 3.12 3.01 2.88 2.71 2.61 2.44 2.46 2.09 1.73 1.43 1.09 0.92 0.87 0.92 0.94 0.95 0.99 1.02 1.08 1.05 1.05 1.03 1.10 1.20 1.31 1.52 1.68 1.62 1.46 1.35 1.28 1.26 1.22 1.18 1.15 1.14
4.69 4.62 4.51 4.12 3.68 3.33 3.04 2.93 2.89 2.70 2.67 2.56 2.46 2.16 1.93 1.69 1.52 1.26 1.02 0.87 0.84 0.81 0.81 0.83 0.89 0.99 1.05 1.02 1.02 1.06 1.10 1.16 1.30 1.39 1.43 1.38 1.29 1.27 1.30 1.32 1.31 1.29 1.29
3.94 3.61 3.29 3.03 2.90 2.70 2.49 2.39 2.36 2.31 2.19 2.09 2.06 2.00 1.92 1.71 1.43 1.24 1.10 0.97 0.94 0.87 0.83 0.84 0.86 0.91 0.97 0.99 1.02 1.12 1.13 1.09 1.12 1.12 1.13 1.15 1.17 1.21 1.24 1.30 1.35 1.39 1.37
3.22 2.80 2.58 2.37 2.23 2.05 1.83 1.71 1.70 1.74 1.81 1.86 1.89 1.85 1.78 1.73 1.58 1.47 1.34 1.15 1.10 1.07 0.96 0.92 0.93 0.96 1.02 1.10 1.20 1.40 1.19 1.09 1.06 1.06 1.02 0.99 1.00 1.05 1.14 1.21 1.28 1.35 1.43
2.91 2.48 2.11 1.91 1.69 1.51 1.41 1.36 1.34 1.35 1.41 1.51 1.64 1.66 1.63 1.59 1.55 1.55 1.54 1.42 1.30 1.19 1.06 1.02 1.04 1.05 1.09 1.16 1.29 1.47 1.28 1.20 1.10 1.01 0.94 0.92 0.93 0.93 0.96 1.02 1.07 1.15 1.23
2.33 2.02 1.61 1.31 1.13 1.01 0.95 0.97 1.01 1.07 1.11 1.16 1.26 1.36 1.38 1.37 1.40 1.43 1.48 1.51 1.55 1.42 1.19 1.11 1.15 1.17 1.15 1.14 1.31 1.36 1.14 1.23 1.13 1.06 1.00 0.96 0.91 0.88 0.89 0.91 0.97 1.00 0.98
1.53 1.32 1.10 0.96 0.87 0.82 0.77 0.73 0.74 0.78 0.83 0.89 0.97 1.07 1.18 1.24 1.26 1.30 1.36 1.41 1.44 1.46 1.35 1.19 1.16 1.14 1.11 1.10 1.28 1.01 0.89 1.07 1.04 1.02 0.99 0.92 0.83 0.78 0.75 0.74 0.74 0.75 0.77
0.90 0.84 0.75 0.72 0.69 0.64 0.62 0.62 0.60 0.60 0.69 0.72 0.74 0.82 0.94 1.06 1.14 1.21 1.28 1.30 1.26 1.24 1.26 1.12 1.04 1.05 1.05 1.00 1.11 0.84 0.82 0.96 0.88 0.84 0.81 0.79 0.75 0.69 0.64 0.63 0.64 0.65 0.63
0.65 0.62 0.57 0.55 0.56 0.56 0.54 0.52 0.54 0.52 0.57 0.67 0.76 0.80 0.86 0.92 0.98 1.01 1.05 1.09 1.16 1.19 1.27 1.26 1.14 1.08 1.03 0.97 0.93 0.80 0.73 0.71 0.73 0.76 0.72 0.69 0.64 0.59 0.55 0.51 0.48 0.47 0.46
0.53 0.52 0.49 0.49 0.50 0.52 0.53 0.52 0.51 0.52 0.54 0.60 0.66 0.68 0.68 0.69 0.76 0.84 0.88 0.90 0.97 1.03 1.12 1.21 1.15 1.02 0.95 0.87 0.79 0.74 0.65 0.58 0.58 0.63 0.58 0.54 0.50 0.46 0.43 0.40 0.36 0.35 0.34
0.49 0.48 0.47 0.47 0.48 0.48 0.48 0.50 0.50 0.50 0.48 0.51 0.53 0.53 0.55 0.57 0.58 0.61 0.64 0.69 0.74 0.79 0.87 0.93 0.95 0.89 0.84 0.75 0.70 0.64 0.57 0.57 0.48 0.49 0.45 0.41 0.36 0.32 0.28 0.27 0.27 0.28 0.28
0.46 0.48 0.48 0.46 0.43 0.39 0.36 0.34 0.35 0.35 0.34 0.35 0.35 0.37 0.42 0.49 0.49 0.49 0.49 0.49 0.53 0.62 0.70 0.76 0.78 0.77 0.75 0.68 0.67 0.63 0.56 0.51 0.44 0.35 0.36 0.31 0.27 0.22 0.21 0.20 0.20 0.20 0.19
0.40 0.38 0.34 0.31 0.26 0.21 0.19 0.18 0.20 0.23 0.23 0.24 0.24 0.24 0.27 0.35 0.43 0.43 0.42 0.44 0.50 0.56 0.60 0.63 0.62 0.59 0.59 0.64 0.65 0.57 0.50 0.44 0.39 0.32 0.35 0.34 0.33 0.35 0.35 0.28 0.21 0.17 0.14
0.32 0.25 0.20 0.18 0.17 0.14 0.14 0.14 0.15 0.20 0.22 0.22 0.22 0.23 0.24 0.27 0.31 0.33 0.38 0.47 0.56 0.57 0.58 0.59 0.56 0.56 0.54 0.55 0.56 0.54 0.52 0.51 0.50 0.38 0.39 0.37 0.34 0.39 0.38 0.35 0.26 0.16 0.12
0.28 0.25 0.19 0.16 0.13 0.12 0.12 0.12 0.14 0.19 0.23 0.24 0.24 0.24 0.22 0.23 0.26 0.27 0.32 0.39 0.44 0.47 0.53 0.61 0.64 0.61 0.61 0.61 0.62 0.59 0.60 0.61 0.58 0.47 0.52 0.50 0.37 0.36 0.28 0.23 0.21 0.15 0.12
0.30 0.29 0.24 0.21 0.17 0.12 0.10 0.10 0.11 0.17 0.21 0.22 0.24 0.25 0.25 0.26 0.27 0.29 0.29 0.31 0.37 0.43 0.45 0.48 0.61 0.61 0.57 0.58 0.62 0.63 0.65 0.65 0.64 0.59 0.60 0.61 0.39 0.33 0.25 0.31 0.27 0.17 0.13
0.28 0.25 0.23 0.22 0.21 0.16 0.10 0.09 0.11 0.18 0.23 0.22 0.21 0.21 0.23 0.25 0.27 0.28 0.30 0.37 0.41 0.45 0.39 0.44 0.54 0.61 0.63 0.62 0.58 0.60 0.74 0.84 0.79 0.61 0.58 0.61 0.48 0.38 0.32 0.33 0.30 0.21 0.17
0.28 0.23 0.20 0.19 0.18 0.17 0.11 0.11 0.13 0.18 0.23 0.22 0.21 0.21 0.21 0.21 0.22 0.22 0.29 0.38 0.47 0.47 0.44 0.49 0.63 0.71 0.70 0.74 0.69 0.70 0.85 0.89 0.82 0.76 0.61 0.59 0.55 0.51 0.48 0.35 0.32 0.30 0.29